Location: Góry Miechowskie
(50.3599°N, 20.1803°E)
Time: 04:06:09
(UTC+00:00)

Cosmos 1461 - Visible Passes

Search period start: 13 September 2024 00:00
Search period end: 23 September 2024 00:00
Orbit: 493 x 569 km, 65.0° (Epoch: 12 September)

Date Brightness Start Highest point End Pass type
(mag) Time Alt. Az. Time Alt. Az. Time Alt. Az.
13 Sep 5.5 00:09:22 16° NE 00:09:22 16° NE 00:10:15 10° NE visible
13 Sep 4.7 01:44:39 17° NW 01:45:00 17° NNW 01:47:36 10° NNE visible
13 Sep 5.7 23:58:47 14° NE 23:58:47 14° NE 23:59:22 10° NE visible
14 Sep 4.9 01:34:05 16° NNW 01:34:12 16° NNW 01:36:40 10° NNE visible
14 Sep 5.9 23:48:07 12° NE 23:48:07 12° NE 23:48:24 10° NE visible
15 Sep 5.0 01:23:24 15° NNW 01:23:24 15° NNW 01:25:38 10° NNE visible
16 Sep 5.2 01:12:37 15° NNW 01:12:37 15° NNW 01:14:31 10° NNE visible
17 Sep 5.3 01:01:45 14° NNW 01:01:45 14° NNW 01:03:18 10° N visible
18 Sep 5.5 00:50:46 13° N 00:50:46 13° N 00:51:58 10° N visible
19 Sep 5.7 00:39:43 12° N 00:39:43 12° N 00:40:33 10° N visible
20 Sep 5.8 00:28:35 11° N 00:28:35 11° N 00:29:02 10° N visible
20 Sep 5.2 03:43:32 10° NNW 03:46:19 19° NNE 03:49:08 10° ENE visible
21 Sep 6.0 00:17:22 10° N 00:17:22 10° N 00:17:25 10° N visible
21 Sep 5.2 03:31:56 10° NNW 03:34:49 20° NNE 03:37:44 10° E visible
22 Sep 5.1 03:20:14 10° NNW 03:23:13 21° NNE 03:26:13 10° E visible
